Colby, KS

5:38 PM CST on December 17, 2017 (GMT -0600)
Shaltz

Weather History for KCBK - May, 2013

Change the Weather History Date:

Sunday, May 26, 2013

  Actual Average (KGLD) Record (KGLD)
Temperature  
Mean Temperature 78 °F -  
Max Temperature 95 °F 74 °F 97 °F (2006)
Min Temperature 62 °F 49 °F 27 °F (1992)
Cooling Degree Days 14    
Growing Degree Days 28 (Base 50)    
Moisture  
Dew Point 56 °F    
Average Humidity 55    
Maximum Humidity 100    
Minimum Humidity 20    
Precipitation  
Precipitation 0.00 in - - ()
Sea Level Pressure  
Sea Level Pressure 29.82 in    
Wind  
Wind Speed 15 mph (SSE)    
Max Wind Speed 30 mph    
Max Gust Speed 37 mph    
Visibility 10 miles    
Events Rain    
Averages and records for this station are not official NWS values.
T = Trace of Precipitation, MM = Missing Value Source: NWS Daily Summary

Daily Weather History Graph

Daily Weather History Graph

Search for Another Location

Airport or City:

Trip Planner

Search our weather history database for the weather conditions in past years. The results will help you decide how hot, cold, wet, or windy it might be!

Date:

Astronomy

May. 26, 2013 Rise Set
Actual Time 6:21 AM CDT 9:01 PM CDT
Civil Twilight 5:50 AM CDT 9:32 PM CDT
Nautical Twilight 5:11 AM CDT 10:11 PM CDT
Astronomical Twilight 4:27 AM CDT 10:55 PM CDT
Moon 10:50 PM CDT (5/26) 7:53 AM CDT (5/26)
Length of Visible Light 15h 41m
Length of Day
14h 39m
Waning Gibbous, 96% of the Moon is Illuminated
May 26
Waning Gibbous
May 31
Last Quarter
Jun 8
New
Jun 16
First Quarter
Jun 23
Full

Hourly Weather History & Observations

Time (CDT) Temp. Heat Index Dew Point Humidity Pressure Visibility Wind Dir Wind Speed Gust Speed Precip Events Conditions
12:15 AM 71.6 °F - 60.8 °F 69% 29.91 in 10.0 mi SE 18.4 mph 26.5 mph N/A   Clear
12:35 AM 69.8 °F - 60.8 °F 73% 29.90 in 10.0 mi SE 19.6 mph - N/A   Clear
12:55 AM 69.8 °F - 60.8 °F 73% 29.89 in 10.0 mi SSE 16.1 mph 23.0 mph N/A   Clear
1:15 AM 69.8 °F - 60.8 °F 73% 29.89 in 10.0 mi SE 17.3 mph 24.2 mph N/A   Clear
1:35 AM 68.0 °F - 60.8 °F 78% 29.89 in 10.0 mi SE 15.0 mph 20.7 mph N/A   Clear
1:55 AM 68.0 °F - 62.6 °F 83% 29.88 in 10.0 mi SE 17.3 mph - N/A   Clear
2:15 AM 66.2 °F - 62.6 °F 88% 29.89 in 10.0 mi SE 17.3 mph - N/A   Clear
2:35 AM 66.2 °F - 62.6 °F 88% 29.86 in 10.0 mi SE 20.7 mph 25.3 mph N/A   Clear
2:55 AM 64.4 °F - 62.6 °F 94% 29.86 in 10.0 mi SE 16.1 mph - N/A   Clear
3:15 AM 64.4 °F - 62.6 °F 94% 29.86 in 10.0 mi SE 15.0 mph 21.9 mph N/A   Clear
3:35 AM 64.4 °F - 62.6 °F 94% 29.86 in 10.0 mi SE 17.3 mph - N/A   Clear
3:55 AM 64.4 °F - 62.6 °F 94% 29.87 in 10.0 mi SE 12.7 mph - N/A   Clear
4:15 AM 64.4 °F - 62.6 °F 94% 29.87 in 10.0 mi SE 18.4 mph 25.3 mph N/A   Scattered Clouds
4:35 AM 62.6 °F - 62.6 °F 100% 29.88 in 10.0 mi SE 16.1 mph 23.0 mph N/A   Mostly Cloudy
4:55 AM 62.6 °F - 62.6 °F 100% 29.87 in 10.0 mi SE 16.1 mph - N/A   Scattered Clouds
5:15 AM 62.6 °F - 62.6 °F 100% 29.87 in 7.0 mi SE 16.1 mph - N/A   Scattered Clouds
5:35 AM 62.6 °F - 62.6 °F 100% 29.87 in 7.0 mi SSE 15.0 mph 19.6 mph N/A   Scattered Clouds
5:55 AM 62.6 °F - 62.6 °F 100% 29.87 in 7.0 mi SSE 17.3 mph - N/A   Mostly Cloudy
6:15 AM 62.6 °F - 62.6 °F 100% 29.87 in 7.0 mi SSE 18.4 mph 23.0 mph N/A   Mostly Cloudy
6:35 AM 62.6 °F - 62.6 °F 100% 29.87 in 5.0 mi SE 17.3 mph - N/A   Mostly Cloudy
6:55 AM 62.6 °F - 62.6 °F 100% 29.87 in 5.0 mi SE 17.3 mph - N/A   Mostly Cloudy
7:15 AM 62.6 °F - 62.6 °F 100% 29.86 in 5.0 mi SE 17.3 mph - N/A   Mostly Cloudy
7:35 AM 62.6 °F - 62.6 °F 100% 29.86 in 10.0 mi SE 16.1 mph - N/A   Scattered Clouds
7:55 AM 64.4 °F - 62.6 °F 94% 29.86 in 10.0 mi SSE 17.3 mph 24.2 mph N/A   Clear
8:15 AM 64.4 °F - 62.6 °F 94% 29.85 in 10.0 mi SSE 16.1 mph 20.7 mph N/A   Clear
8:35 AM 68.0 °F - 62.6 °F 83% 29.85 in 10.0 mi SSE 16.1 mph - N/A   Clear
8:55 AM 69.8 °F - 62.6 °F 78% 29.85 in 10.0 mi South 15.0 mph 18.4 mph N/A   Clear
9:15 AM 71.6 °F - 62.6 °F 73% 29.85 in 10.0 mi South 12.7 mph - N/A   Clear
9:35 AM 73.4 °F - 59.0 °F 61% 29.84 in 10.0 mi South 12.7 mph 19.6 mph N/A   Clear
9:55 AM 77.0 °F - 57.2 °F 50% 29.84 in 10.0 mi SSW 17.3 mph 21.9 mph N/A   Clear
10:15 AM 78.8 °F - 57.2 °F 47% 29.83 in 10.0 mi SSW 18.4 mph 24.2 mph N/A   Clear
10:35 AM 80.6 °F 80.5 °F 55.4 °F 42% 29.82 in 10.0 mi SSW 20.7 mph 26.5 mph N/A   Clear
10:55 AM 80.6 °F 80.3 °F 53.6 °F 39% 29.82 in 10.0 mi SSW 17.3 mph 27.6 mph N/A   Clear
11:15 AM 80.6 °F 80.5 °F 55.4 °F 42% 29.82 in 10.0 mi SSW 16.1 mph 25.3 mph N/A   Clear
11:35 AM 82.4 °F 81.7 °F 55.4 °F 39% 29.82 in 10.0 mi SSW 15.0 mph 23.0 mph N/A   Clear
11:55 AM 82.4 °F 81.4 °F 53.6 °F 37% 29.82 in 10.0 mi SSW 16.1 mph 20.7 mph N/A   Clear
12:15 PM 84.2 °F 82.8 °F 53.6 °F 35% 29.83 in 10.0 mi SSW 17.3 mph 23.0 mph N/A   Clear
12:35 PM 86.0 °F 84.2 °F 53.6 °F 33% 29.82 in 10.0 mi South 16.1 mph 20.7 mph N/A   Clear
12:55 PM 86.0 °F 84.2 °F 53.6 °F 33% 29.82 in 10.0 mi South 16.1 mph 21.9 mph N/A   Clear
1:15 PM 86.0 °F 84.2 °F 53.6 °F 33% 29.81 in 10.0 mi South 15.0 mph 19.6 mph N/A   Clear
1:35 PM 87.8 °F - 51.8 °F 29% 29.81 in 10.0 mi SSW 15.0 mph 21.9 mph N/A   Clear
1:55 PM 89.6 °F - 51.8 °F 27% 29.80 in 10.0 mi SW 12.7 mph 19.6 mph N/A   Clear
2:15 PM 91.4 °F - 51.8 °F 26% 29.79 in 10.0 mi SSW 13.8 mph 23.0 mph N/A   Clear
2:35 PM 89.6 °F - 51.8 °F 27% 29.79 in 10.0 mi SSW 4.6 mph 11.5 mph N/A   Clear
2:55 PM 91.4 °F - 51.8 °F 26% 29.79 in 10.0 mi West 9.2 mph - N/A   Clear
3:15 PM 91.4 °F - 51.8 °F 26% 29.79 in 10.0 mi SSW 6.9 mph - N/A   Clear
3:35 PM 93.2 °F - 51.8 °F 24% 29.78 in 10.0 mi West 6.9 mph - N/A   Clear
3:55 PM 91.4 °F 89.1 °F 53.6 °F 28% 29.78 in 10.0 mi WNW 9.2 mph - N/A   Clear
4:15 PM 95.0 °F - 51.8 °F 23% 29.77 in 10.0 mi West 9.2 mph - N/A   Clear
4:35 PM 95.0 °F - 50.0 °F 22% 29.77 in 10.0 mi WSW 5.8 mph - N/A   Clear
4:55 PM 93.2 °F - 50.0 °F 23% 29.77 in 10.0 mi SSW 4.6 mph - N/A   Clear
5:15 PM 95.0 °F - 48.2 °F 20% 29.76 in 10.0 mi Calm Calm - N/A   Clear
5:35 PM 91.4 °F - 48.2 °F 23% 29.75 in 10.0 mi SSE 6.9 mph - N/A   Clear
5:55 PM 93.2 °F - 50.0 °F 23% 29.75 in 10.0 mi Calm Calm - N/A   Clear
6:15 PM 95.0 °F - 50.0 °F 22% 29.74 in 10.0 mi North 6.9 mph - N/A   Clear
6:35 PM 93.2 °F - 51.8 °F 24% 29.74 in 10.0 mi NNW 10.4 mph - N/A   Clear
6:55 PM 91.4 °F - 50.0 °F 24% 29.74 in 10.0 mi North 5.8 mph - N/A   Clear
7:15 PM 89.6 °F - 50.0 °F 26% 29.74 in 10.0 mi North 8.1 mph - N/A   Clear
7:35 PM 87.8 °F - 50.0 °F 27% 29.75 in 10.0 mi NNW 5.8 mph - N/A   Clear
7:55 PM 87.8 °F - 48.2 °F 25% 29.75 in 10.0 mi Calm Calm - N/A   Clear
8:15 PM 84.2 °F - 50.0 °F 30% 29.75 in 10.0 mi North 3.5 mph - N/A   Clear
8:35 PM 84.2 °F - 48.2 °F 29% 29.75 in 10.0 mi NW 3.5 mph - N/A   Clear
8:55 PM 80.6 °F - 50.0 °F 34% 29.75 in 10.0 mi Calm Calm - N/A   Clear
9:15 PM 80.6 °F - 48.2 °F 32% 29.75 in 10.0 mi Calm Calm - N/A   Clear
9:35 PM 80.6 °F - 48.2 °F 32% 29.76 in 10.0 mi ESE 4.6 mph - N/A   Clear
9:55 PM 82.4 °F - 50.0 °F 32% 29.76 in 10.0 mi ESE 6.9 mph - N/A   Clear
10:15 PM 78.8 °F - 51.8 °F 39% 29.75 in 10.0 mi ESE 6.9 mph - N/A   Clear
10:35 PM 80.6 °F 81.1 °F 59.0 °F 48% 29.76 in 10.0 mi SE 18.4 mph - N/A   Clear
10:55 PM 77.0 °F - 59.0 °F 54% 29.80 in 10.0 mi South 29.9 mph 36.8 mph N/A Rain Rain
11:15 PM 82.4 °F - 46.4 °F 28% 29.77 in 10.0 mi SE 23.0 mph 31.1 mph N/A   Mostly Cloudy
11:35 PM 80.6 °F 81.1 °F 59.0 °F 48% 29.77 in 10.0 mi SE 21.9 mph 34.5 mph N/A   Scattered Clouds
11:55 PM 77.0 °F - 59.0 °F 54% 29.75 in 10.0 mi SE 19.6 mph 27.6 mph N/A   Clear